Lyndonville, VT

8:35 PM EDT on October 17, 2017 (GMT -0400)
Lyndonville

Weather History for KCDA - October, 2012

Change the Weather History Date:

Monday, October 29, 2012

  Actual Average (K1V4) Record (K1V4)
Temperature  
Mean Temperature 55 °F -  
Max Temperature 60 °F 47 °F 74 °F (1971)
Min Temperature 50 °F 31 °F 16 °F (1903)
Degree Days  
Heating Degree Days 10    
Growing Degree Days 5 (Base 50)    
Moisture  
Dew Point 45 °F    
Average Humidity 72    
Maximum Humidity 77    
Minimum Humidity 60    
Precipitation  
Precipitation 0.00 in - - ()
Sea Level Pressure  
Sea Level Pressure 29.76 in    
Wind  
Wind Speed 10 mph (ENE)    
Max Wind Speed 24 mph    
Max Gust Speed 38 mph    
Visibility 10 miles    
Events      
Averages and records for this station are not official NWS values.
T = Trace of Precipitation, MM = Missing Value Source: NWS Daily Summary

Daily Weather History Graph

Daily Weather History Graph

Search for Another Location

Airport or City:

Trip Planner

Search our weather history database for the weather conditions in past years. The results will help you decide how hot, cold, wet, or windy it might be!

Date:

Astronomy

Oct. 29, 2012 Rise Set
Actual Time 7:22 AM EDT 5:40 PM EDT
Civil Twilight 6:52 AM EDT 6:10 PM EDT
Nautical Twilight 6:17 AM EDT 6:45 PM EDT
Astronomical Twilight 5:43 AM EDT 7:18 PM EDT
Moon 5:29 PM EDT (10/29) 7:10 AM EDT (10/29)
Length of Visible Light 11h 18m
Length of Day
10h 18m
Full, 100% of the Moon is Illuminated
Oct 29
Full
Oct 29
Full
Nov 6
Last Quarter
Nov 13
New
Nov 20
First Quarter

Hourly Weather History & Observations

Time (EDT) Temp. Dew Point Humidity Pressure Visibility Wind Dir Wind Speed Gust Speed Precip Events Conditions
12:15 AM 51.8 °F 42.4 °F 70% 29.92 in 10.0 mi ENE 11.5 mph - N/A   Overcast
12:55 AM 51.8 °F 41.9 °F 69% 29.91 in 10.0 mi ENE 9.2 mph 16.1 mph N/A   Mostly Cloudy
1:15 AM 51.4 °F 41.5 °F 69% 29.90 in 10.0 mi ENE 5.8 mph - N/A   Mostly Cloudy
1:35 AM 51.3 °F 41.7 °F 70% 29.89 in 10.0 mi ENE 5.8 mph - N/A   Mostly Cloudy
1:55 AM 50.4 °F 41.7 °F 72% 29.88 in 10.0 mi NE 3.5 mph - N/A   Scattered Clouds
2:15 AM 50.9 °F 42.8 °F 74% 29.87 in 10.0 mi ENE 5.8 mph - N/A   Scattered Clouds
2:35 AM 51.3 °F 43.0 °F 73% 29.86 in 10.0 mi ENE 9.2 mph 16.1 mph N/A   Scattered Clouds
2:55 AM 51.1 °F 43.2 °F 74% 29.85 in 10.0 mi ENE 8.1 mph - N/A   Scattered Clouds
3:15 AM 51.1 °F 43.2 °F 74% 29.84 in 10.0 mi ENE 8.1 mph - N/A   Scattered Clouds
3:35 AM 51.3 °F 43.5 °F 75% 29.84 in 10.0 mi NE 5.8 mph - N/A   Mostly Cloudy
3:55 AM 51.8 °F 43.9 °F 74% 29.84 in 10.0 mi ENE 9.2 mph - N/A   Mostly Cloudy
4:15 AM 51.8 °F 44.2 °F 75% 29.84 in 10.0 mi NE 6.9 mph - N/A   Overcast
4:35 AM 52.0 °F 44.6 °F 76% 29.83 in 10.0 mi NE 10.4 mph - N/A   Overcast
4:55 AM 51.8 °F 44.6 °F 76% 29.83 in 10.0 mi NE 8.1 mph - N/A   Overcast
5:35 AM 51.8 °F 44.8 °F 77% 29.82 in 10.0 mi NE 10.4 mph - N/A   Overcast
5:55 AM 51.8 °F 44.8 °F 77% 29.82 in 10.0 mi NE 9.2 mph - N/A   Overcast
6:15 AM 51.8 °F 44.8 °F 77% 29.81 in 10.0 mi NE 8.1 mph - N/A   Overcast
6:35 AM 51.8 °F 44.6 °F 76% 29.81 in 10.0 mi ENE 5.8 mph - N/A   Overcast
6:55 AM 51.8 °F 44.6 °F 76% 29.81 in 10.0 mi ENE 9.2 mph - N/A   Overcast
7:15 AM 51.8 °F 44.2 °F 75% 29.80 in 10.0 mi ENE 10.4 mph 17.3 mph N/A   Mostly Cloudy
7:35 AM 52.2 °F 44.2 °F 74% 29.80 in 10.0 mi NE 12.7 mph 17.3 mph N/A   Scattered Clouds
7:55 AM 52.0 °F 44.6 °F 76% 29.79 in 10.0 mi NE 15.0 mph 19.6 mph N/A   Scattered Clouds
8:15 AM 52.7 °F 44.8 °F 74% 29.79 in 10.0 mi ENE 16.1 mph 19.6 mph N/A   Mostly Cloudy
8:35 AM 52.7 °F 44.8 °F 74% 29.79 in 10.0 mi NE 12.7 mph 20.7 mph N/A   Overcast
8:55 AM 52.7 °F 45.0 °F 75% 29.79 in 10.0 mi NE 11.5 mph 16.1 mph N/A   Overcast
9:15 AM 52.7 °F 45.0 °F 75% 29.79 in 10.0 mi NE 10.4 mph 17.3 mph N/A   Overcast
9:35 AM 52.7 °F 45.1 °F 75% 29.80 in 10.0 mi ENE 10.4 mph 17.3 mph N/A   Overcast
9:55 AM 52.7 °F 45.5 °F 76% 29.79 in 10.0 mi NE 13.8 mph 18.4 mph N/A   Overcast
10:15 AM 53.1 °F 45.1 °F 74% 29.78 in 10.0 mi NE 10.4 mph 18.4 mph N/A   Overcast
10:35 AM 53.2 °F 45.5 °F 75% 29.77 in 10.0 mi NE 9.2 mph 17.3 mph N/A   Overcast
10:55 AM 54.0 °F 45.7 °F 74% 29.76 in 10.0 mi NE 13.8 mph 17.3 mph N/A   Overcast
11:15 AM 54.5 °F 45.3 °F 71% 29.76 in 10.0 mi NE 11.5 mph 20.7 mph N/A   Overcast
11:35 AM 54.9 °F 46.0 °F 72% 29.75 in 10.0 mi NE 6.9 mph 10.4 mph N/A   Overcast
11:55 AM 55.4 °F 46.2 °F 71% 29.74 in 10.0 mi ENE 9.2 mph 24.2 mph N/A   Overcast
12:15 PM 56.5 °F 46.6 °F 69% 29.72 in 10.0 mi NE 11.5 mph 18.4 mph N/A   Overcast
12:35 PM 57.2 °F 46.8 °F 68% 29.71 in 10.0 mi ENE 15.0 mph 23.0 mph N/A   Overcast
12:55 PM 57.2 °F 46.6 °F 68% 29.70 in 10.0 mi NE 16.1 mph 19.6 mph N/A   Overcast
1:15 PM 57.9 °F 46.8 °F 66% 29.69 in 10.0 mi NE 16.1 mph 23.0 mph N/A   Overcast
1:35 PM 59.0 °F 46.9 °F 64% 29.68 in 10.0 mi ENE 10.4 mph 23.0 mph N/A   Overcast
1:55 PM 60.1 °F 46.8 °F 61% 29.67 in 10.0 mi NE 15.0 mph 25.3 mph N/A   Overcast
2:55 PM - - N/A% - - North - - N/A   Unknown
3:15 PM - - N/A% - - North - - N/A   Unknown
3:35 PM - - N/A% - - North - - N/A   Unknown
3:55 PM - - N/A% - - North - - N/A   Unknown
4:15 PM 59.9 °F 46.0 °F 60% 29.61 in - ENE 20.7 mph - N/A   Unknown
4:35 PM 59.0 °F 46.0 °F 62% 29.61 in 10.0 mi ENE 16.1 mph 26.5 mph N/A   Unknown
4:55 PM 58.1 °F 46.4 °F 65% 29.59 in 10.0 mi ENE 18.4 mph 26.5 mph N/A   Mostly Cloudy
5:15 PM 57.7 °F 46.4 °F 66% 29.58 in 10.0 mi ENE 17.3 mph 33.4 mph N/A   Scattered Clouds
5:35 PM 57.7 °F 47.3 °F 68% 29.56 in 10.0 mi ENE 24.2 mph 35.7 mph N/A   Scattered Clouds
11:35 PM 58.8 °F 50.5 °F 74% 29.41 in 10.0 mi East 17.3 mph 33.4 mph N/A   Mostly Cloudy
11:55 PM 59.4 °F 50.2 °F 72% 29.42 in 10.0 mi East 24.2 mph 38.0 mph N/A   Mostly Cloudy